Flight Track Log - Related Links

Times and Time Zones

All times are in EDT time to prevent confusion due to time zone crossing. See the ASQ5678 flight status page for this flight to view local times or setup timezone preferences in your user account.

Time Position Orientation Groundspeed Altitude Reporting Facility
EDT Latitude Longitude Course Direction KTS MPH feet Rate Location/Type
Fri 04:42:40 PM 44.4856 -73.2461 194° South 162 186 4,400  Level Boston Center
Fri 04:43:40 PM 44.4250 -73.2714 197° South 174 200 6,200 2,200 Climbing Boston Center
Fri 04:44:00 PM 44.1787 -73.2553 190° South  Level FlightAware Approximate
Fri 04:44:40 PM 44.3561 -73.2878 190° South 228 262 8,800  Level Boston Center
Fri 04:45:00 PM 44.1051 -73.2737 190° South  Level FlightAware Approximate
Fri 04:45:40 PM 44.2831 -73.3100 192° South 265 305 10,700  Level Boston Center
Fri 04:46:00 PM 44.0323 -73.2971 196° South  Level FlightAware Approximate
Fri 04:46:40 PM 44.2078 -73.3319 192° South 292 336 11,400  Level Boston Center
Fri 04:47:00 PM 43.9604 -73.3259 196° South  Level FlightAware Approximate
Fri 04:47:40 PM 44.1158 -73.3597 192° South 330 380 12,600  Level Boston Center
Fri 04:48:00 PM 43.8883 -73.3539 194° South  Level FlightAware Approximate
Fri 04:48:40 PM 44.0178 -73.3869 191° South 357 411 14,000  Level Boston Center
Fri 04:49:40 PM 43.9197 -73.4142 191° South 362 417 15,500 1,600 Climbing Boston Center
Fri 04:50:40 PM 43.8214 -73.4444 193° South 362 417 17,200 1,400 Climbing Boston Center
Fri 04:51:40 PM 43.7233 -73.4686 190° South 362 417 18,300 1,350 Climbing Boston Center
Fri 04:52:40 PM 43.6231 -73.4956 191° South 362 417 19,900 850 Climbing Boston Center
Fri 04:53:40 PM 43.5186 -73.5253 192° South 368 423 20,000 50 Climbing Boston Center
Fri 04:54:40 PM 43.4036 -73.5575 192° South 397 457 20,000  Level Boston Center
Fri 04:55:40 PM 43.2886 -73.5867 190° South 418 481 20,000  Level Boston Center
Fri 04:56:40 PM 43.1758 -73.6217 193° South 418 481 20,000  Level Boston Center
Fri 04:57:40 PM 43.0544 -73.6761 198° South 418 481 20,000  Level Boston Center
Fri 04:58:40 PM 42.9475 -73.7222 198° South 418 481 20,000  Level Boston Center
Fri 04:59:40 PM 42.8386 -73.7653 196° South 418 481 20,000 -50 Level Boston Center
Fri 05:00:40 PM 42.7278 -73.8136 198° South 418 481 19,900 -500 Descending Boston Center
Fri 05:01:40 PM 42.6186 -73.8650 199° South 424 488 19,000 -950 Descending Boston Center
Fri 05:02:40 PM 42.5222 -73.9050 197° South 418 481 18,000 -773 Descending Boston Center
Fri 05:03:52 PM 42.4092 -73.9558 198° South 405 466 17,300 -864 Descending Boston Center
Fri 05:04:52 PM 42.2833 -74.0117 198° South 405 466 16,100 -600 Descending Boston Center
Fri 05:05:52 PM 42.1825 -74.0539 197° South 391 450 16,100  Level Boston Center
Fri 05:06:52 PM 42.0839 -74.0989 199° South 381 438 16,100 -50 Level Boston Center
Fri 05:07:52 PM 42.0000 -74.1358 198° South 340 391 16,000 -50 Descending Boston Center
Fri 05:08:52 PM 41.9161 -74.1756 199° South 343 395 16,000 -950 Level Boston Center
Fri 05:09:52 PM 41.8069 -74.2225 198° South 370 426 14,100 -2,000 Descending Boston Center
Fri 05:10:52 PM 41.7083 -74.2644 198° South 375 432 12,000 -1,750 Descending Boston Center
Fri 05:11:52 PM 41.6222 -74.3008 198° South 352 405 10,600 -1,250 Descending Boston Center
Fri 05:12:52 PM 41.5697 -74.3214 196° South 310 357 9,500 -1,050 Descending Boston Center
Fri 05:13:52 PM 41.4858 -74.3606 199° South 262 302 8,500 -709 Descending Boston Center
Fri 05:16:15 PM 41.3333 -74.4167 195° South 237 273 7,100 -443 Descending New York TRACON
Fri 05:17:15 PM 41.2667 -74.4500 201° Southwest 234 269 7,000 -50 Descending New York TRACON
Fri 05:18:15 PM 41.2167 -74.4833 207° Southwest 237 273 7,000  Level New York TRACON
Fri 05:19:21 PM 41.1500 -74.5000 191° South 233 268 7,000 -48 Level New York TRACON
Fri 05:20:21 PM 41.0833 -74.5167 191° South 216 249 6,900 -450 Descending New York TRACON
Fri 05:21:21 PM 41.0333 -74.5167 180° South 217 250 6,100 -400 Descending New York TRACON
Fri 05:22:21 PM 40.9667 -74.5000 169° South 220 253 6,100  Level New York TRACON
Fri 05:23:21 PM 40.9667 -74.4333 90° East 212 244 6,100 -250 Level New York TRACON
Fri 05:24:21 PM 40.9833 -74.3500 75° East 220 253 5,600 -450 Descending New York TRACON
Fri 05:25:21 PM 40.9833 -74.2833 90° East 208 239 5,200 -550 Descending New York TRACON
Fri 05:26:21 PM 40.9667 -74.2167 108° East 192 221 4,500 -600 Descending New York TRACON
Fri 05:27:21 PM 40.9500 -74.1500 108° East 187 215 4,000 -700 Descending New York TRACON
Fri 05:28:21 PM 40.9167 -74.1000 131° Southeast 192 221 3,100 -500 Descending New York TRACON
Fri 05:29:21 PM 40.8667 -74.0667 153° Southeast 188 216 3,000 -100 Descending New York TRACON
Fri 05:30:21 PM 40.8167 -74.0833 194° South 180 207 2,900 -100 Descending New York TRACON

Login

Don't have an account? Register now (free) for customized features, flight alerts, and more!